Location: Boiro
(42.6475°N, 8.8834°W)
Time: 04:24:38
(UTC+01:00)

Vanguard 1 Rocket - Pass Details

Date: 01 December 2021
Orbit: 651 x 4225 km, 34.3° (Epoch: 26 January)

Event Time Altitude Azimuth Distance (km) Brightness Sun altitude
Exits shadow 03:37:43 36° 126° (SE) 3,490 10.2 -55.3°
Drops below altitude 10° 03:51:49 10° 84° (E) 6,529 12.1 -53.0°
Sets 03:58:25 0° 79° (ENE) 7,997 12.8 -51.9°
